Temp
15 16 17 18 19 19 20 20 21 22 23 24 24 25 26 27 28 27 35 34 34 32 31 34 34 35 37 39 40 40 39 37 37 37 35 36 35 34 34 30 29 30 28 24 23
14 15 16 17 18 19 19 20 21 22 24 24 24 25 25 26 27 34 35 34 33 32 34 36 39 39 40 41 41 39 39 37 38 37 36 36 35 34 34 31 27 27 25 25 24
13 15 16 17 18 19 19 20 21 22 23 24 25 25 26 26 32 38 33 33 33 32 34 37 38 40 40 41 41 41 39 39 38 38 37 36 35 35 34 32 29 26 24 24 24
11 13 15 16 17 18 19 21 22 23 23 24 25 25 26 25 35 35 33 33 32 31 34 37 39 40 41 40 41 39 39 39 38 38 37 36 36 34 35 33 32 28 26 25 24
11 11 13 15 17 18 19 20 22 23 23 24 25 25 25 33 36 33 33 33 31 32 36 38 39 40 40 40 41 39 39 39 38 37 37 37 35 33 32 31 31 28 27 26 26
11 11 12 14 16 17 19 20 22 23 24 24 25 24 26 33 36 34 34 34 35 35 37 38 40 40 40 40 40 40 39 38 38 37 37 35 34 34 32 31 29 27 27 26 27
11 11 12 13 15 17 19 20 21 23 24 24 24 23 30 34 34 35 34 35 36 37 38 39 39 40 41 40 41 40 38 38 38 38 37 37 36 33 32 31 28 27 26 26 26
11 11 11 13 15 16 19 21 21 23 24 24 24 23 31 34 34 34 35 36 36 36 38 38 39 40 40 41 41 40 40 38 38 39 37 38 34 34 33 31 30 29 28 27 27
10 11 11 12 15 17 19 21 21 21 22 22 23 27 32 32 33 34 35 37 37 37 37 37 39 40 40 39 39 38 32 36 38 39 39 38 36 35 35 34 32 31 30 30 30
10 10 11 12 14 17 20 21 21 20 21 22 26 30 33 34 35 35 36 36 38 38 38 38 39 39 40 40 38 33 36 40 38 39 39 39 37 36 36 36 34 33 32 32 31
10 10 11 13 15 17 19 24 26 26 27 32 34 33 36 36 35 35 36 36 38 38 37 38 38 38 40 40 39 41 39 40 40 40 39 39 38 37 36 37 36 35 34 33 33
10 10 11 12 15 18 18 27 26 23 27 32 33 35 35 35 35 36 36 36 37 36 38 38 38 40 42 41 40 40 40 40 40 40 39 39 39 39 37 37 37 36 35 35 35
9 10 10 12 16 17 22 24 23 24 27 32 34 34 35 35 35 36 37 37 37 37 38 38 39 41 41 40 39 40 40 40 39 40 40 40 39 39 39 39 39 38 37 36 36
9 9 10 12 17 19 24 22 23 24 28 33 34 35 35 35 34 38 37 38 38 37 39 39 41 40 40 39 40 40 41 40 40 39 39 40 36 39 39 39 39 39 38 37 36
9 9 10 12 13 20 22 21 22 25 28 37 36 36 36 35 37 36 37 38 37 38 39 38 39 40 39 39 41 40 42 40 40 39 40 40 39 40 40 39 39 39 39 39 37
9 9 9 14 15 18 19 21 23 26 29 34 35 34 35 35 36 38 37 38 39 38 39 40 41 41 40 41 41 41 40 40 40 40 39 40 40 40 40 40 40 40 40 39 39
9 9 9 10 16 18 18 22 25 27 34 35 34 34 35 34 36 37 36 35 36 35 36 38 40 41 40 40 41 40 39 37 37 38 39 41 40 40 42 42 42 41 41 41 40
9 9 11 13 15 17 19 22 25 31 33 37 36 35 34 36 36 37 35 35 37 38 38 37 36 39 40 40 40 39 39 38 36 38 39 40 39 41 43 43 43 43 42 42 41
9 12 15 17 17 17 19 22 26 31 34 35 36 35 34 36 36 36 36 36 37 38 37 37 37 40 40 40 40 39 38 41 40 41 40 40 41 42 43 42 42 43 43 42 42
9 13 16 17 17 17 19 21 27 32 35 35 34 36 35 36 36 36 35 37 37 39 40 39 37 40 40 40 40 40 41 39 40 38 38 40 40 40 41 42 43 42 42 42 42
10 16 18 17 16 18 19 22 25 32 33 33 35 35 36 36 37 37 37 38 39 38 39 40 39 39 40 38 39 39 40 40 41 40 39 39 40 43 42 42 42 42 42 42 42
13 16 17 16 17 19 20 23 24 28 32 32 32 35 36 37 37 37 37 38 39 39 38 39 39 38 39 40 41 41 40 40 39 38 40 41 41 44 43 43 42 42 42 42 42
14 17 18 17 17 20 22 23 25 28 29 31 31 33 36 36 35 37 38 39 40 39 38 39 38 37 38 40 40 40 40 41 41 41 39 39 40 43 43 42 42 42 41 41 41
12 16 19 19 19 20 22 23 24 27 29 30 31 33 34 35 36 36 37 39 40 39 34 37 38 37 38 38 39 38 40 40 41 40 40 40 41 42 42 42 42 42 41 41 40
13 15 13 16 19 20 21 23 24 25 27 28 30 32 33 33 34 35 37 38 39 35 37 38 36 38 39 41 40 39 39 40 40 40 40 41 41 42 42 42 42 42 41 40 38
11 13 15 17 17 17 17 21 23 25 26 27 28 30 32 33 34 34 36 37 37 37 37 38 35 36 37 40 41 39 40 40 40 41 41 41 41 43 43 43 42 41 40 39 38
13 12 13 16 18 18 20 21 22 24 27 28 29 29 31 33 34 34 35 36 38 36 36 36 36 35 35 38 39 38 40 40 40 41 41 40 41 43 42 41 42 42 41 39 38
Height
815 813 810 808 805 802 799 796 793 790 787 784 781 779 775 772 769 767 760 759 759 758 759 758 757 753 747 735 730 724 742 762 759 758 768 756 766 764 767 787 789 789 799 814 821
815 812 809 806 803 801 798 795 792 789 787 784 781 778 775 771 767 760 757 757 757 757 758 754 744 742 738 728 723 733 744 758 744 749 763 760 761 770 771 786 800 801 810 816 820
815 812 809 805 802 799 796 793 791 788 786 783 780 778 775 772 764 747 753 755 756 756 756 751 746 740 733 725 727 725 750 745 749 748 750 763 767 762 769 782 795 807 813 818 822
816 812 808 805 802 798 794 791 788 787 785 782 779 777 775 775 775 751 753 753 754 755 756 749 743 737 734 738 729 747 740 745 751 751 754 765 760 770 766 774 783 800 810 818 823
817 813 808 805 801 798 793 789 786 784 783 781 779 776 774 767 754 752 753 753 754 756 753 746 744 737 740 737 730 746 748 747 750 754 759 758 769 777 782 785 791 802 810 816 820
817 813 809 805 800 796 793 789 785 782 780 779 778 776 774 769 749 752 753 754 753 754 749 745 739 738 737 737 739 737 745 751 753 760 760 770 774 774 787 789 799 805 810 815 818
817 813 808 804 800 795 790 787 784 780 777 776 776 775 768 755 750 751 751 750 750 749 746 741 740 739 731 741 727 737 754 751 755 754 762 755 774 787 785 791 800 807 812 816 819
816 812 808 803 798 794 788 785 782 778 775 774 774 776 761 747 747 749 749 748 749 748 745 742 741 738 732 727 732 739 737 763 754 750 756 755 793 782 782 790 798 802 808 813 818
816 811 806 801 796 791 786 782 779 776 774 773 774 769 755 743 745 744 745 744 744 745 746 746 742 737 733 747 752 750 796 774 762 747 752 754 782 776 775 780 791 795 800 804 807
817 811 805 800 795 789 783 779 775 774 773 775 771 768 744 738 734 737 740 742 740 741 745 746 744 746 738 739 768 791 776 749 762 754 754 755 771 773 772 773 781 786 792 797 800
816 811 805 798 793 789 781 776 773 768 765 748 738 739 727 729 734 734 734 739 737 740 756 744 757 758 741 738 747 734 749 752 746 745 753 753 761 768 768 768 774 778 784 788 792
816 811 805 797 792 787 784 773 773 779 765 741 737 731 726 729 732 728 731 739 741 752 742 747 758 731 720 729 741 738 748 751 747 743 752 752 757 754 762 764 765 771 777 781 784
815 810 804 797 790 786 783 777 779 776 764 734 723 725 725 729 729 723 724 727 738 746 741 746 738 721 726 734 748 740 745 750 756 748 743 750 761 756 752 754 755 760 766 772 778
814 810 805 797 794 787 778 781 779 777 765 726 715 711 716 720 729 711 717 722 727 739 733 735 720 729 733 744 739 750 728 742 751 760 770 744 795 760 751 756 756 758 761 766 771
814 810 806 804 798 787 783 783 780 775 774 684 696 694 699 715 704 714 710 715 726 729 729 736 729 731 739 741 730 742 723 741 747 758 755 753 769 754 744 760 755 750 754 756 764
812 809 805 801 798 790 787 783 779 775 755 702 692 704 705 707 705 701 710 710 709 722 718 719 708 715 727 723 722 721 740 746 748 753 775 752 755 758 750 749 745 741 743 749 755
809 806 804 804 793 787 788 781 775 753 701 695 698 697 698 707 708 702 716 725 728 746 741 727 720 711 716 733 723 732 752 783 789 781 777 734 756 748 726 725 727 734 736 739 746
805 801 796 793 791 789 787 777 759 705 697 669 679 688 701 692 699 699 714 723 711 714 728 742 753 724 715 725 735 745 748 768 801 782 763 742 768 744 712 709 714 715 722 730 738
801 794 785 782 784 786 782 761 724 694 684 677 676 690 697 687 692 695 704 708 705 701 724 734 739 709 711 715 718 739 756 726 746 735 757 746 738 718 711 718 717 717 715 724 729
800 790 777 775 777 781 771 742 712 687 667 671 689 677 693 686 691 691 701 690 698 691 688 699 734 703 710 710 711 720 721 758 741 777 777 744 750 748 732 725 714 719 717 716 721
797 776 763 770 774 769 747 732 721 684 675 679 677 676 672 677 676 680 686 680 679 689 687 688 705 713 703 720 727 729 731 732 727 738 758 769 747 704 716 710 715 713 711 713 716
790 773 763 767 766 750 742 731 721 699 680 682 679 667 666 663 671 676 682 676 663 672 697 685 699 715 713 699 697 704 722 722 745 758 732 733 729 683 696 702 708 709 709 709 713
784 764 758 763 753 739 732 728 715 704 693 689 689 673 658 663 676 668 664 653 654 669 682 685 705 727 718 708 702 711 711 710 715 719 741 750 742 691 694 702 704 705 709 711 714
789 757 748 751 745 732 723 719 717 700 695 688 683 672 671 669 658 668 668 654 650 661 671 680 695 705 714 713 704 724 710 709 712 736 733 731 720 707 705 707 705 706 707 711 716
785 765 768 748 737 732 723 712 709 706 700 694 689 678 674 681 675 670 659 655 653 664 669 678 707 697 691 681 690 702 709 707 715 713 728 716 716 705 702 705 699 701 707 715 721
791 779 765 747 744 744 741 722 710 701 702 701 697 684 678 678 672 676 662 658 661 662 674 675 705 700 705 684 680 699 696 702 699 701 705 704 708 683 686 690 699 700 710 717 722
786 786 779 753 738 740 728 726 717 704 696 690 690 688 683 671 662 659 654 648 648 667 678 685 694 704 719 693 693 710 686 691 695 690 698 716 701 684 692 696 697 697 701 713 717
Wind_Speed
22 21 21 20 20 20 20 20 19 19 17 16 13 12 13 15 14 7 10 3 3 5 4 5 9 10 11 15 8 12 3 9 13 13 13 9 11 9 19 12 8 5 18 19 25
24 23 23 21 21 21 21 21 20 18 16 17 13 12 14 16 14 17 10 7 6 8 8 8 8 5 12 5 4 10 12 10 11 12 9 7 12 9 12 12 14 17 22 23 23
25 25 24 24 23 22 22 21 20 17 17 16 13 11 12 13 12 7 6 10 13 11 12 12 11 9 15 6 4 16 15 12 12 11 11 12 10 7 9 15 12 17 21 20 16
27 26 25 24 24 24 23 22 19 18 18 17 14 11 10 5 7 6 1 6 12 12 14 14 11 16 3 9 1 14 14 12 12 9 9 13 10 8 16 16 18 20 20 20 17
27 28 26 25 23 23 24 22 20 20 18 16 13 9 7 11 18 3 2 5 10 12 15 12 12 10 5 8 8 14 12 13 12 11 10 9 13 14 16 17 17 21 18 16 15
28 29 28 27 25 24 23 22 22 20 19 16 11 7 8 16 5 3 4 4 12 15 16 15 9 7 5 2 3 13 12 14 14 13 13 14 12 12 14 17 17 17 16 15 14
29 29 30 29 27 25 24 21 22 21 18 13 7 5 13 16 3 7 11 11 12 15 15 12 8 11 2 5 11 12 13 13 13 10 7 16 13 14 14 15 16 13 11 12 13
28 30 31 31 29 27 24 22 21 18 14 8 5 7 11 9 19 15 12 13 11 13 16 6 9 12 12 10 13 18 21 15 13 9 6 10 12 13 15 15 14 15 14 14 14
28 30 32 33 30 28 25 21 17 10 6 3 6 10 16 9 15 19 18 18 15 13 12 7 11 16 6 15 15 1 4 15 12 3 5 9 13 14 15 14 14 14 15 14 16
27 29 32 34 31 28 26 16 12 6 5 7 14 8 18 15 13 20 22 20 15 13 12 12 9 13 13 18 10 25 24 12 15 11 6 4 15 15 14 13 13 14 13 13 14
27 29 31 34 30 25 23 7 6 8 18 15 13 16 3 11 6 15 23 22 16 17 18 18 14 16 20 9 9 11 3 12 10 8 6 2 17 14 14 12 13 13 13 14 14
27 29 32 33 27 14 11 8 7 7 10 21 24 19 19 6 13 18 25 21 21 21 22 16 20 20 19 18 14 4 6 8 8 8 8 10 7 17 16 13 14 13 14 14 14
26 28 31 34 20 6 10 8 6 9 8 19 23 24 21 16 16 21 25 26 23 25 25 22 23 21 18 8 12 13 13 12 6 5 10 5 10 14 17 15 13 14 14 14 15
24 26 28 35 9 15 7 2 9 7 7 18 24 20 25 21 22 20 29 27 18 27 26 23 22 21 10 15 17 16 7 4 4 9 4 9 2 14 16 15 16 15 15 16 16
23 24 25 18 19 11 8 11 12 6 7 9 23 10 22 27 12 25 30 27 25 23 22 25 24 19 21 21 17 10 9 8 6 8 11 14 8 15 16 16 17 17 18 17 18
23 23 25 15 14 18 16 12 10 8 17 8 13 16 25 29 28 26 24 28 24 22 26 25 23 19 20 19 18 18 6 7 11 11 12 12 12 13 15 16 17 18 19 19 18
23 24 23 18 13 7 12 11 8 14 15 15 21 20 27 21 30 26 29 29 25 23 25 26 28 21 18 22 21 13 11 10 11 11 9 17 10 4 15 12 17 20 19 21 20
25 26 23 21 19 17 13 9 17 18 27 8 22 22 28 27 32 29 29 28 29 29 19 22 25 20 23 25 20 19 20 13 15 12 11 7 7 6 10 16 11 17 21 20 21
25 22 21 18 16 15 9 17 18 20 30 13 19 22 25 26 30 23 28 31 31 29 21 23 29 25 25 21 25 18 21 23 22 17 8 14 12 16 10 11 9 12 18 22 21
19 22 26 20 13 16 12 28 21 28 14 30 18 20 24 28 32 31 30 32 33 31 27 20 21 24 25 20 28 26 20 21 17 15 13 9 16 10 16 15 13 14 16 20 22
16 8 6 6 13 11 18 27 29 25 22 18 25 20 22 27 30 28 29 25 33 33 28 28 19 24 23 23 23 22 20 23 20 15 11 12 12 12 14 12 7 8 17 17 20
18 11 9 9 11 12 18 28 28 33 20 15 13 22 21 23 26 29 31 31 33 28 34 28 11 17 24 22 24 23 22 25 15 18 15 11 3 19 15 8 6 10 14 17 17
8 11 12 9 13 14 21 27 31 30 27 20 13 18 23 19 23 27 25 27 24 33 32 25 17 17 22 23 23 24 25 23 25 18 15 13 10 8 10 5 7 10 15 16 17
6 6 7 8 13 18 19 24 28 29 24 24 18 22 18 19 15 20 28 29 27 23 21 24 21 20 18 21 22 28 27 28 22 17 15 17 15 16 11 9 12 8 14 15 15
4 6 6 6 6 14 16 16 24 28 19 24 22 23 18 17 19 18 23 23 23 16 20 27 28 22 23 21 25 24 28 26 28 25 21 19 15 12 7 8 9 13 13 15 15
5 4 9 12 6 10 5 15 14 22 25 26 20 18 19 18 21 15 18 24 23 24 21 23 21 27 24 27 23 29 30 32 29 28 23 22 16 7 12 9 12 11 12 14 15
12 15 7 7 10 11 13 16 16 16 21 24 19 20 20 13 9 4 12 9 19 21 22 24 20 21 24 24 22 22 26 28 30 27 24 23 19 16 9 11 12 13 12 14 16
Wind_Direction
9 8 6 4 2 360 356 356 354 353 353 351 350 343 333 326 317 287 267 44 215 233 186 212 235 251 244 258 234 273 317 44 30 67 104 142 108 56 106 109 74 55 140 139 138
4 3 1 359 357 354 351 348 348 347 347 346 342 339 334 329 309 268 250 254 238 211 218 230 265 245 254 254 250 219 68 63 49 84 107 84 110 135 134 112 103 100 115 140 145
0 358 356 354 351 347 345 342 341 341 339 338 335 333 330 327 278 256 181 240 240 210 249 282 291 276 269 273 335 36 73 73 72 85 95 108 112 172 131 138 144 138 140 140 145
358 355 352 350 346 342 338 337 334 331 331 330 329 322 317 279 261 87 70 282 220 218 251 272 267 266 298 101 255 86 70 81 96 116 113 90 112 91 53 84 125 136 142 147 154
357 355 350 347 344 338 332 330 325 322 322 321 319 312 306 232 251 153 296 327 203 213 243 259 276 306 32 111 140 100 92 92 90 88 99 114 82 88 93 103 122 129 145 154 162
354 352 349 346 342 335 329 324 319 315 314 312 305 292 251 255 262 232 240 236 214 215 241 248 279 346 284 76 328 108 118 114 107 120 129 116 129 108 106 118 127 148 154 163 163
351 350 347 344 340 333 325 322 317 311 307 302 283 266 264 244 211 239 227 233 219 222 240 241 280 281 312 139 124 136 138 133 139 134 152 149 117 105 130 136 138 142 153 164 182
349 348 346 342 339 333 322 319 314 308 298 288 258 244 265 247 241 232 232 224 226 230 245 289 257 274 274 112 191 190 177 142 133 181 144 251 112 139 150 152 152 159 165 174 185
347 345 343 341 338 330 320 317 309 298 286 237 244 229 259 175 225 227 220 222 207 219 217 270 253 250 178 192 197 10 357 185 130 157 131 230 124 152 172 163 159 167 169 177 179
344 343 340 338 337 330 321 312 292 262 249 248 261 266 245 222 216 215 207 215 202 204 209 223 226 229 216 217 215 135 239 123 130 153 233 129 111 155 177 176 163 165 168 176 174
341 340 338 335 335 333 328 309 219 207 220 230 212 210 101 193 172 208 194 197 206 207 210 202 218 219 209 202 225 232 30 131 115 112 239 54 134 158 172 182 170 169 170 176 179
338 337 336 334 331 332 308 275 44 332 290 237 249 245 254 232 209 210 188 194 199 205 211 195 221 219 228 158 234 252 199 134 93 122 273 152 180 152 172 189 171 180 173 177 172
336 336 335 332 325 301 307 324 329 325 256 258 232 227 224 211 233 194 187 196 197 208 203 213 208 229 222 168 222 216 210 135 95 167 212 250 179 167 171 182 176 177 177 183 176
333 335 336 337 304 332 284 354 317 314 269 253 210 222 215 212 225 230 195 197 195 209 212 219 213 217 197 217 217 218 225 73 228 243 244 183 306 183 170 184 181 180 179 182 183
330 331 332 337 301 297 12 317 311 258 262 219 185 197 199 199 167 209 188 208 215 207 214 212 222 213 198 214 213 252 148 199 239 259 268 186 243 155 173 187 186 187 182 186 181
322 324 327 324 287 271 291 300 274 226 226 173 144 187 188 194 220 176 198 215 219 217 218 224 214 218 216 220 229 236 185 230 248 248 247 247 243 173 173 186 192 188 181 184 182
313 313 308 288 258 340 312 272 213 230 216 218 180 194 197 188 205 176 191 198 205 207 211 216 224 208 222 221 219 232 211 221 222 225 244 201 213 226 152 179 186 187 189 180 184
309 308 290 266 260 267 265 224 229 207 222 219 187 195 204 190 199 187 191 197 207 208 201 202 216 199 217 232 211 214 220 226 209 221 184 203 222 203 146 159 169 186 189 188 183
314 299 278 258 239 230 234 217 217 231 201 204 196 194 200 203 196 185 198 200 200 207 214 203 215 195 218 211 236 197 223 244 249 229 259 177 201 229 152 185 188 197 190 188 190
309 295 271 242 207 216 223 234 229 240 236 225 213 204 199 202 198 191 199 202 202 207 217 195 209 209 198 213 224 232 204 227 245 262 239 180 174 216 184 206 193 188 208 193 191
291 269 154 173 197 221 224 224 235 244 246 241 227 217 221 201 198 203 205 201 206 200 216 234 210 207 186 204 205 210 226 212 237 237 233 243 187 178 171 188 152 214 201 196 195
273 269 125 202 213 227 230 234 238 242 263 242 275 262 213 211 203 218 206 208 196 203 209 223 213 225 195 197 222 205 216 203 224 212 257 275 309 171 156 173 194 156 181 189 197
281 271 226 218 234 231 226 237 241 237 244 235 237 255 255 229 211 210 219 208 202 207 200 204 226 215 192 198 206 219 206 215 220 241 221 243 137 125 138 156 159 166 175 182 190
292 272 217 202 251 275 239 218 228 239 240 243 244 248 242 240 244 210 222 206 197 210 201 199 216 231 211 206 196 214 209 218 221 220 234 213 249 147 161 194 156 213 170 177 185
278 304 184 263 194 252 257 282 220 220 225 247 236 247 225 227 223 223 212 206 197 194 193 199 220 218 245 214 205 204 217 222 223 228 226 231 211 236 205 191 208 171 165 176 185
302 314 317 288 239 292 238 255 264 213 211 224 231 229 241 228 220 204 238 213 195 184 206 201 218 227 227 243 205 210 208 221 227 225 236 245 243 229 196 202 215 149 163 182 188
320 330 309 290 257 226 225 235 251 250 219 232 227 240 234 241 343 19 316 270 200 201 195 202 213 208 222 225 236 242 221 211 226 225 230 236 237 254 206 204 225 221 183 194 194